FBZ2742 SUMU-SABE

Flight info

Callsign FBZ2742
Flight time 0h 36m
Altitude 26000
Route DAGUS DCT UGIMI UGIMI8Q
Aircraft B738/M-SDE2E3FGHIRWXY/LB1

Departure

Time 2026-04-21 22:16
Airport Carrasco General Cesáreo L. Berisso International Airport (SUMU)

Arrival

Time 2026-04-21 22:52
Airport Aeroparque Jorge Newbery (SABE)
Time Latitude Longitude Altitude Speed Heading
2026-04-21 21:45 -34.83644 -56.01859 113 ft 0 kts 143°
2026-04-21 21:50 -34.83744 -56.02014 113 ft 0 kts 143°
2026-04-21 21:58 -34.83744 -56.02015 113 ft 0 kts 143°
2026-04-21 21:58 -34.83735 -56.02023 113 ft 2 kts 145°
2026-04-21 21:58 -34.83718 -56.02033 113 ft 3 kts 162°
2026-04-21 21:59 -34.83699 -56.02037 113 ft 3 kts 180°
2026-04-21 21:59 -34.83678 -56.02033 113 ft 3 kts 197°
2026-04-21 21:59 -34.83660 -56.02023 113 ft 3 kts 212°
2026-04-21 21:59 -34.83644 -56.02007 113 ft 3 kts 226°
2026-04-21 22:00 -34.83636 -56.01996 113 ft 0 kts 232°
2026-04-21 22:01 -34.83641 -56.02004 113 ft 1 kts 233°
2026-04-21 22:01 -34.83646 -56.02012 113 ft 5 kts 234°
2026-04-21 22:01 -34.83686 -56.02079 113 ft 9 kts 234°
2026-04-21 22:01 -34.83741 -56.02176 113 ft 16 kts 236°
2026-04-21 22:02 -34.83834 -56.02224 113 ft 18 kts 179°
2026-04-21 22:02 -34.83914 -56.02228 113 ft 11 kts 212°
2026-04-21 22:02 -34.83929 -56.02312 113 ft 11 kts 263°
2026-04-21 22:02 -34.83943 -56.02448 113 ft 16 kts 270°
2026-04-21 22:03 -34.83942 -56.02547 113 ft 7 kts 270°
2026-04-21 22:03 -34.83943 -56.02619 113 ft 12 kts 269°
2026-04-21 22:03 -34.83951 -56.02734 113 ft 16 kts 250°
2026-04-21 22:03 -34.84007 -56.02836 113 ft 12 kts 237°
2026-04-21 22:04 -34.84018 -56.02947 113 ft 18 kts 266°
2026-04-21 22:04 -34.84019 -56.03046 113 ft 8 kts 269°
2026-04-21 22:04 -34.84023 -56.03144 113 ft 15 kts 261°
2026-04-21 22:04 -34.84071 -56.03246 113 ft 12 kts 234°
2026-04-21 22:05 -34.84126 -56.03339 113 ft 16 kts 234°
2026-04-21 22:05 -34.84144 -56.03371 113 ft 0 kts 236°
2026-04-21 22:10 -34.84145 -56.03374 113 ft 2 kts 236°
2026-04-21 22:10 -34.84177 -56.03429 113 ft 14 kts 235°
2026-04-21 22:10 -34.84215 -56.03497 113 ft 13 kts 235°
2026-04-21 22:11 -34.84254 -56.03562 113 ft 6 kts 235°
2026-04-21 22:11 -34.84268 -56.03603 113 ft 4 kts 269°
2026-04-21 22:11 -34.84266 -56.03616 113 ft 1 kts 290°
2026-04-21 22:11 -34.84266 -56.03617 113 ft 0 kts 290°
2026-04-21 22:14 -34.84266 -56.03618 113 ft 1 kts 292°
2026-04-21 22:14 -34.84245 -56.03646 113 ft 5 kts 316°
2026-04-21 22:15 -34.84199 -56.03680 113 ft 5 kts 14°
2026-04-21 22:15 -34.84179 -56.03651 113 ft 3 kts 57°
2026-04-21 22:15 -34.84177 -56.03646 113 ft 0 kts 57°
2026-04-21 22:15 -34.84046 -56.03418 113 ft 68 kts 53°
2026-04-21 22:16 -34.83633 -56.02739 113 ft 130 kts 53°
2026-04-21 22:16 -34.82995 -56.01687 244 ft 172 kts 54°
2026-04-21 22:16 -34.82236 -56.00418 754 ft 194 kts 54°
2026-04-21 22:16 -34.81436 -55.99070 1581 ft 197 kts 49°
2026-04-21 22:17 -34.80351 -55.98058 2403 ft 203 kts 26°
2026-04-21 22:17 -34.78947 -55.97645 2912 ft 219 kts 358°
2026-04-21 22:17 -34.77439 -55.98057 3622 ft 227 kts 337°
2026-04-21 22:17 -34.76271 -55.99387 4477 ft 244 kts 306°
2026-04-21 22:18 -34.75855 -56.01482 4915 ft 275 kts 269°
2026-04-21 22:18 -34.76061 -56.03880 5559 ft 283 kts 257°
2026-04-21 22:18 -34.76348 -56.06172 7088 ft 257 kts 253°
2026-04-21 22:18 -34.76857 -56.08153 8494 ft 244 kts 250°
2026-04-21 22:19 -34.77493 -56.10098 9287 ft 252 kts 251°
2026-04-21 22:19 -34.78154 -56.12112 9995 ft 260 kts 253°
2026-04-21 22:19 -34.78820 -56.14205 10694 ft 269 kts 255°
2026-04-21 22:19 -34.79491 -56.16380 11273 ft 282 kts 255°
2026-04-21 22:20 -34.80188 -56.18697 11643 ft 302 kts 255°
2026-04-21 22:20 -34.80919 -56.21186 11945 ft 322 kts 255°
2026-04-21 22:20 -34.81775 -56.23802 12233 ft 342 kts 251°
2026-04-21 22:20 -34.82722 -56.26504 12769 ft 350 kts 253°
2026-04-21 22:21 -34.83570 -56.29287 13503 ft 351 kts 255°
2026-04-21 22:21 -34.84349 -56.32109 14212 ft 353 kts 257°
2026-04-21 22:21 -34.85096 -56.34941 14871 ft 357 kts 257°
2026-04-21 22:21 -34.85843 -56.37843 15496 ft 361 kts 257°
2026-04-21 22:22 -34.86588 -56.40780 16111 ft 365 kts 258°
2026-04-21 22:22 -34.87337 -56.43754 16690 ft 369 kts 258°
2026-04-21 22:22 -34.88102 -56.46764 17264 ft 373 kts 258°
2026-04-21 22:22 -34.88863 -56.49802 17915 ft 374 kts 257°
2026-04-21 22:23 -34.89632 -56.52840 18559 ft 376 kts 257°
2026-04-21 22:23 -34.90397 -56.55902 19231 ft 375 kts 255°
2026-04-21 22:23 -34.91151 -56.58950 19819 ft 378 kts 256°
2026-04-21 22:23 -34.91903 -56.62015 20245 ft 384 kts 256°
2026-04-21 22:24 -34.92669 -56.65155 20733 ft 388 kts 255°
2026-04-21 22:24 -34.93439 -56.68325 21214 ft 391 kts 255°
2026-04-21 22:24 -34.94213 -56.71523 21676 ft 395 kts 255°
2026-04-21 22:24 -34.94994 -56.74756 21932 ft 402 kts 252°
2026-04-21 22:25 -34.95795 -56.78079 21970 ft 412 kts 252°
2026-04-21 22:25 -34.96603 -56.81433 21977 ft 419 kts 252°
2026-04-21 22:25 -34.97398 -56.84891 21980 ft 424 kts 254°
2026-04-21 22:25 -34.97951 -56.88424 21981 ft 426 kts 259°
2026-04-21 22:26 -34.98217 -56.92023 21981 ft 425 kts 265°
2026-04-21 22:26 -34.98283 -56.95620 21977 ft 423 kts 266°
2026-04-21 22:26 -34.98266 -56.99255 21973 ft 436 kts 268°
2026-04-21 22:26 -34.98239 -57.03008 21981 ft 448 kts 269°
2026-04-21 22:27 -34.98213 -57.06804 21987 ft 459 kts 269°
2026-04-21 22:27 -34.98185 -57.10718 21984 ft 461 kts 268°
2026-04-21 22:27 -34.98159 -57.14554 21984 ft 445 kts 268°
2026-04-21 22:27 -34.98133 -57.18289 21985 ft 435 kts 268°
2026-04-21 22:28 -34.98108 -57.21944 21989 ft 428 kts 271°
2026-04-21 22:28 -34.98082 -57.25556 21991 ft 422 kts 271°
2026-04-21 22:28 -34.98056 -57.29138 21993 ft 421 kts 271°
2026-04-21 22:28 -34.98042 -57.32655 21994 ft 419 kts 271°
2026-04-21 22:29 -34.98029 -57.36202 21995 ft 417 kts 271°
2026-04-21 22:29 -34.98013 -57.39740 21995 ft 417 kts 271°
2026-04-21 22:29 -34.97993 -57.43275 21998 ft 415 kts 270°
2026-04-21 22:29 -34.97971 -57.46789 22000 ft 412 kts 270°
2026-04-21 22:30 -34.97947 -57.50292 22000 ft 412 kts 270°
2026-04-21 22:30 -34.97935 -57.53781 22000 ft 412 kts 270°
2026-04-21 22:30 -34.97916 -57.57229 22000 ft 412 kts 270°
2026-04-21 22:30 -34.97889 -57.60730 22000 ft 412 kts 270°
2026-04-21 22:31 -34.97859 -57.64226 22000 ft 412 kts 270°
2026-04-21 22:31 -34.97826 -57.67720 21998 ft 409 kts 270°
2026-04-21 22:31 -34.97791 -57.71107 21996 ft 392 kts 271°
2026-04-21 22:31 -34.97625 -57.74365 21987 ft 377 kts 278°
2026-04-21 22:32 -34.97054 -57.77418 21986 ft 362 kts 288°
2026-04-21 22:32 -34.96112 -57.80199 21990 ft 349 kts 296°
2026-04-21 22:32 -34.95069 -57.82834 21967 ft 341 kts 296°
2026-04-21 22:32 -34.94033 -57.85427 21608 ft 341 kts 296°
2026-04-21 22:33 -34.92993 -57.88030 21241 ft 341 kts 296°
2026-04-21 22:33 -34.91956 -57.90622 20884 ft 340 kts 296°
2026-04-21 22:33 -34.90924 -57.93204 20479 ft 340 kts 298°
2026-04-21 22:33 -34.89888 -57.95786 20025 ft 340 kts 295°
2026-04-21 22:34 -34.88846 -57.98390 19501 ft 344 kts 299°
2026-04-21 22:34 -34.87797 -58.00999 19316 ft 335 kts 295°
2026-04-21 22:34 -34.86794 -58.03502 19241 ft 322 kts 295°
2026-04-21 22:34 -34.85829 -58.05904 19163 ft 308 kts 294°
2026-04-21 22:35 -34.84918 -58.08173 19062 ft 294 kts 294°
2026-04-21 22:35 -34.84031 -58.10381 18733 ft 288 kts 296°
2026-04-21 22:35 -34.83153 -58.12564 18285 ft 286 kts 296°
2026-04-21 22:35 -34.82286 -58.14718 17901 ft 281 kts 295°
2026-04-21 22:36 -34.80595 -58.18939 17059 ft 276 kts 295°
2026-04-21 22:36 -34.79764 -58.21028 16687 ft 272 kts 295°
2026-04-21 22:36 -34.79009 -58.23109 16380 ft 265 kts 292°
2026-04-21 22:37 -34.78327 -58.25132 16294 ft 252 kts 292°
2026-04-21 22:37 -34.77675 -58.27061 16215 ft 240 kts 292°
2026-04-21 22:37 -34.77055 -58.28890 16140 ft 228 kts 292°
2026-04-21 22:37 -34.76460 -58.30638 15984 ft 220 kts 292°
2026-04-21 22:38 -34.75887 -58.32318 15884 ft 210 kts 292°
2026-04-21 22:38 -34.75330 -58.33943 15528 ft 211 kts 292°
2026-04-21 22:38 -34.74757 -58.35606 15109 ft 214 kts 292°
2026-04-21 22:38 -34.74182 -58.37268 14781 ft 213 kts 292°
2026-04-21 22:39 -34.73612 -58.38908 14473 ft 212 kts 292°
2026-04-21 22:39 -34.73038 -58.40553 14162 ft 211 kts 292°
2026-04-21 22:39 -34.72532 -58.42236 13825 ft 211 kts 291°
2026-04-21 22:39 -34.72049 -58.43916 13500 ft 210 kts 292°
2026-04-21 22:40 -34.71561 -58.45588 13174 ft 209 kts 292°
2026-04-21 22:40 -34.71072 -58.47253 12846 ft 208 kts 292°
2026-04-21 22:40 -34.70584 -58.48888 12527 ft 208 kts 292°
2026-04-21 22:40 -34.69945 -58.50450 12183 ft 207 kts 305°
2026-04-21 22:41 -34.68992 -58.51761 11860 ft 207 kts 311°
2026-04-21 22:41 -34.68020 -58.53035 11527 ft 206 kts 309°
2026-04-21 22:41 -34.67107 -58.54380 11193 ft 205 kts 306°
2026-04-21 22:41 -34.66292 -58.55796 10862 ft 204 kts 302°
2026-04-21 22:42 -34.65553 -58.57267 10531 ft 203 kts 300°
2026-04-21 22:42 -34.64851 -58.58759 10199 ft 203 kts 300°
2026-04-21 22:42 -34.64141 -58.60234 9862 ft 202 kts 300°
2026-04-21 22:42 -34.63478 -58.61718 9539 ft 202 kts 298°
2026-04-21 22:43 -34.62822 -58.63243 9209 ft 201 kts 298°
2026-04-21 22:43 -34.62190 -58.64733 8864 ft 201 kts 298°
2026-04-21 22:43 -34.61555 -58.66243 8544 ft 200 kts 298°
2026-04-21 22:43 -34.60926 -58.67752 8219 ft 199 kts 298°
2026-04-21 22:44 -34.60304 -58.69252 7893 ft 198 kts 298°
2026-04-21 22:44 -34.59686 -58.70747 7568 ft 197 kts 297°
2026-04-21 22:44 -34.59076 -58.72231 7247 ft 197 kts 297°
2026-04-21 22:44 -34.58463 -58.73718 6928 ft 196 kts 297°
2026-04-21 22:45 -34.57859 -58.75194 6611 ft 195 kts 297°
2026-04-21 22:45 -34.57220 -58.76636 6268 ft 195 kts 307°
2026-04-21 22:45 -34.56053 -58.77472 5884 ft 206 kts 345°
2026-04-21 22:45 -34.54612 -58.77109 5538 ft 227 kts 22°
2026-04-21 22:46 -34.53553 -58.75640 5203 ft 245 kts 55°
2026-04-21 22:46 -34.52934 -58.73692 4905 ft 247 kts 63°
2026-04-21 22:46 -34.52278 -58.71817 4760 ft 233 kts 55°
2026-04-21 22:46 -34.51529 -58.70137 4643 ft 219 kts 51°
2026-04-21 22:47 -34.50761 -58.68606 4484 ft 207 kts 49°
2026-04-21 22:47 -34.49995 -58.67148 4201 ft 203 kts 49°
2026-04-21 22:47 -34.49248 -58.65727 3875 ft 202 kts 49°
2026-04-21 22:47 -34.48495 -58.64301 3535 ft 201 kts 50°
2026-04-21 22:48 -34.47733 -58.62860 3259 ft 199 kts 50°
2026-04-21 22:48 -34.46996 -58.61464 3138 ft 195 kts 51°
2026-04-21 22:48 -34.46321 -58.60032 3011 ft 200 kts 63°
2026-04-21 22:48 -34.46306 -58.58335 2792 ft 207 kts 108°
2026-04-21 22:49 -34.47059 -58.56896 2612 ft 200 kts 131°
2026-04-21 22:49 -34.47944 -58.55633 2394 ft 194 kts 130°
2026-04-21 22:49 -34.48729 -58.54348 2182 ft 188 kts 127°
2026-04-21 22:49 -34.49459 -58.53086 1990 ft 178 kts 126°
2026-04-21 22:50 -34.50160 -58.51868 1778 ft 175 kts 128°
2026-04-21 22:50 -34.50845 -58.50659 1620 ft 171 kts 128°
2026-04-21 22:50 -34.51500 -58.49494 1641 ft 165 kts 128°
2026-04-21 22:50 -34.52145 -58.48345 1582 ft 162 kts 128°
2026-04-21 22:51 -34.52790 -58.47183 1213 ft 168 kts 129°
2026-04-21 22:51 -34.53439 -58.46026 895 ft 164 kts 129°
2026-04-21 22:51 -34.54077 -58.44890 598 ft 160 kts 123°
2026-04-21 22:51 -34.54696 -58.43781 329 ft 157 kts 124°
2026-04-21 22:52 -34.55309 -58.42677 67 ft 153 kts 124°
2026-04-21 22:52 -34.55848 -58.41703 26 ft 119 kts 124°
2026-04-21 22:52 -34.56149 -58.41174 26 ft 39 kts 123°
2026-04-21 22:52 -34.56249 -58.40923 26 ft 16 kts 90°
2026-04-21 22:53 -34.56249 -58.40843 26 ft 3 kts 90°
2026-04-21 22:53 -34.56249 -58.40841 26 ft 0 kts 90°
2026-04-21 22:53 -34.56245 -58.40821 26 ft 7 kts 53°
2026-04-21 22:54 -34.56199 -58.40856 26 ft 13 kts 298°
2026-04-21 22:54 -34.56180 -58.40895 26 ft 0 kts 305°
2026-04-21 22:54 -34.56179 -58.40895 26 ft 0 kts 305°
2026-04-21 22:55 -34.56174 -58.40904 26 ft 6 kts 306°
2026-04-21 22:55 -34.56139 -58.40956 26 ft 9 kts 310°
2026-04-21 22:55 -34.56106 -58.41005 26 ft 10 kts 310°
2026-04-21 22:56 -34.56066 -58.41065 26 ft 9 kts 308°
2026-04-21 22:56 -34.56033 -58.41117 26 ft 10 kts 307°
2026-04-21 22:56 -34.55998 -58.41178 26 ft 6 kts 309°
2026-04-21 22:56 -34.55961 -58.41235 26 ft 10 kts 306°
2026-04-21 22:57 -34.55911 -58.41297 26 ft 11 kts 351°
2026-04-21 22:57 -34.55826 -58.41299 26 ft 14 kts 305°
2026-04-21 22:57 -34.55774 -58.41395 26 ft 12 kts 303°
2026-04-21 22:57 -34.55742 -58.41458 26 ft 6 kts 300°
2026-04-21 22:58 -34.55736 -58.41509 26 ft 5 kts 226°
2026-04-21 22:58 -34.55774 -58.41530 26 ft 3 kts 208°